Wind_Speed
27 29 30 31 32 33 34 35 36 37 40 40 39 38 38 39 41 42 43 43 42 42 44 45 45 45 47 47 48 50 51 53 54 56 58 61 63 62 62 62 63 66 67 66
30 31 32 33 34 34 36 36 37 38 40 41 40 39 38 39 40 42 42 42 42 42 42 43 43 43 43 44 45 48 48 49 51 52 54 57 61 62 61 62 62 64 67 67
31 32 33 34 35 35 37 38 39 40 40 41 41 39 38 39 40 42 42 42 42 43 42 41 41 41 41 42 44 46 47 47 47 49 52 55 58 60 61 61 61 62 65 65
33 33 34 34 35 37 37 38 40 40 41 41 41 41 38 39 40 41 43 42 42 42 42 40 40 39 40 42 43 43 45 45 45 48 49 52 54 57 58 58 60 60 62 63
34 34 35 36 36 37 38 39 40 40 41 41 41 42 40 40 40 41 42 41 41 42 41 40 40 40 40 41 42 42 42 44 44 46 47 50 53 55 56 57 59 60 60 61
35 35 36 36 37 38 38 39 41 41 42 42 42 43 41 41 41 41 42 41 41 40 41 39 39 40 40 41 41 40 41 43 44 45 45 47 48 51 53 55 57 59 60 60
35 36 36 36 37 38 39 40 42 44 43 43 43 43 42 42 41 41 41 42 41 40 40 40 40 41 42 42 41 40 40 41 42 44 44 45 46 47 49 51 55 58 59 61
37 37 36 37 37 38 39 40 41 44 45 45 44 44 43 42 41 42 42 42 42 42 42 42 42 42 42 42 40 39 38 39 41 41 43 43 43 44 46 50 51 54 57 59
39 38 38 38 38 39 39 40 41 43 46 46 46 46 43 42 42 42 42 42 43 43 43 43 43 42 41 41 40 39 37 38 40 40 42 43 43 43 45 49 51 52 55 57
40 40 39 39 39 39 40 41 42 43 46 48 48 47 45 44 43 42 42 42 43 43 43 42 42 41 41 40 38 37 37 37 38 39 41 43 42 41 43 46 49 51 52 55
41 41 41 40 40 40 40 41 42 44 45 48 50 48 45 44 44 44 43 42 43 43 43 42 42 42 41 39 37 36 36 36 36 37 38 40 41 41 42 43 45 47 49 52
42 43 42 41 41 41 42 42 42 44 46 48 50 49 45 45 44 44 44 43 43 43 42 41 41 40 40 38 37 36 34 34 34 34 36 37 38 39 39 40 42 43 45 49
42 43 43 43 43 43 43 43 43 45 46 47 49 49 45 45 44 45 45 44 44 43 42 40 39 39 37 36 35 34 32 31 32 32 33 35 35 36 37 38 40 41 43 44
43 43 43 44 43 44 44 44 44 45 46 48 48 49 45 44 44 44 44 44 43 42 40 39 38 37 36 34 33 32 30 30 29 29 30 31 32 33 35 37 38 40 41 41
44 45 45 44 43 44 45 45 45 46 46 48 48 48 46 45 44 44 44 43 42 41 39 37 37 36 35 33 32 31 29 28 27 27 27 28 30 31 32 34 36 37 38 40
46 46 46 46 45 45 45 44 44 45 46 47 48 47 46 45 44 44 43 42 41 40 38 36 36 35 34 32 30 29 29 27 27 26 25 26 27 29 30 32 34 35 36 37
47 47 47 47 46 47 46 44 44 45 46 46 47 47 46 44 43 42 42 41 40 39 38 36 35 34 33 31 29 28 27 28 26 25 25 26 26 27 29 30 33 35 36 36
47 47 48 49 48 48 46 45 45 46 46 46 47 45 44 44 43 42 41 40 39 38 37 36 35 33 32 30 29 27 27 27 26 26 25 26 27 27 28 30 33 34 35 37
46 47 48 49 50 50 46 45 46 47 46 45 45 44 44 44 42 40 40 40 39 38 37 35 34 32 31 30 29 28 28 26 25 25 25 25 27 28 29 30 32 33 35 36
47 47 48 48 49 50 46 46 45 47 46 44 44 44 43 43 42 38 39 38 38 37 36 35 34 32 31 30 29 27 26 26 24 23 24 25 26 27 28 28 30 32 35 36
46 47 47 47 48 48 46 45 45 46 46 44 44 43 43 42 41 40 39 38 38 37 37 35 34 33 31 30 29 27 25 24 24 23 23 24 25 26 28 29 30 32 34 35
46 47 46 46 47 46 44 44 45 46 46 45 44 43 43 42 40 39 38 38 38 38 37 36 34 32 31 29 27 26 25 24 22 22 22 24 25 25 27 29 30 32 34 35
45 45 45 45 45 44 44 45 45 45 46 45 44 43 42 41 40 39 38 38 38 37 36 35 33 31 30 29 27 26 25 24 22 21 21 22 23 26 26 27 30 31 32 35
45 45 46 46 44 44 44 44 44 44 45 44 43 41 40 40 39 38 38 38 37 36 35 33 32 30 29 27 26 25 24 24 23 21 21 21 23 24 27 28 30 31 32 33
45 45 45 46 43 43 43 43 43 44 43 42 41 40 40 39 38 38 37 36 35 35 34 33 31 29 28 26 26 25 24 24 23 22 21 22 23 24 26 27 29 31 32 34
43 43 44 44 42 43 42 42 42 42 41 40 39 39 39 38 37 36 35 34 34 34 33 32 30 28 26 26 25 25 25 24 23 22 22 22 23 24 25 27 28 30 32 34
Wind_Direction
302 303 304 304 304 304 304 305 307 307 307 307 306 306 303 301 301 301 300 297 294 294 292 289 287 282 278 272 267 264 262 258 255 253 251 247 245 244 243 242 242 241 240 240
304 303 304 304 305 305 306 307 308 308 308 308 307 307 306 304 303 303 301 300 297 296 293 291 289 286 281 275 270 267 265 261 257 254 251 248 245 245 243 242 242 241 239 238
305 305 305 305 305 306 307 308 309 309 309 309 308 308 309 308 306 304 302 300 298 296 294 293 291 286 282 278 274 270 267 264 259 256 253 249 246 246 244 242 242 241 238 237
304 305 305 305 305 306 307 307 309 309 311 312 311 310 311 310 309 307 303 301 298 296 294 292 291 287 285 282 278 274 269 265 261 258 254 251 248 246 244 242 241 240 237 235
304 305 305 305 306 306 307 308 309 310 311 312 313 312 314 312 313 310 305 302 299 297 295 293 292 290 289 286 281 276 270 265 263 261 257 253 250 246 245 242 240 238 236 235
303 304 304 304 304 305 306 307 308 310 311 312 313 313 315 314 315 312 307 304 300 298 296 296 293 292 291 288 284 279 273 268 265 262 257 253 250 245 244 242 240 237 235 234
301 302 303 304 304 305 306 308 310 311 312 313 314 313 316 315 314 313 310 307 303 300 297 297 295 294 292 290 286 281 277 272 267 262 257 255 252 247 244 242 239 236 235 234
300 301 302 303 304 304 305 307 309 310 311 312 312 313 316 315 313 311 310 309 306 303 299 297 296 296 294 291 288 284 278 273 267 261 258 255 251 246 244 243 239 236 234 234
298 300 301 302 303 304 305 307 308 308 310 311 312 312 313 314 312 311 309 307 306 305 301 298 299 298 297 294 289 284 279 274 268 263 260 254 250 246 244 241 239 236 234 234
295 297 299 301 302 303 304 306 307 309 310 311 311 313 314 313 312 310 308 306 305 305 302 300 300 300 299 296 290 285 280 276 271 263 259 254 248 245 243 241 240 237 235 234
294 295 297 299 300 303 304 305 307 307 308 309 310 312 314 312 312 311 309 308 307 305 302 302 301 300 299 296 292 288 282 277 271 264 259 253 248 245 243 241 239 237 236 234
292 294 296 297 299 300 302 304 305 306 307 307 308 311 313 311 310 310 309 309 307 305 303 303 302 300 299 295 291 289 283 278 273 267 260 254 248 244 242 238 237 236 234 233
291 292 294 296 298 299 300 302 303 304 305 306 307 310 312 310 308 308 309 309 307 306 303 302 301 300 299 294 291 288 284 280 275 267 261 256 250 245 240 237 235 233 232 230
287 289 291 294 297 298 299 300 301 302 303 304 306 309 310 309 307 307 307 307 306 305 303 301 301 299 297 293 291 288 283 280 273 267 262 258 253 246 240 237 235 234 232 228
284 287 289 291 293 294 296 298 299 300 302 303 306 307 310 308 308 307 306 306 305 303 302 300 300 299 296 292 290 287 282 278 272 269 264 258 253 246 240 238 236 234 228 225
282 285 288 289 290 291 293 296 297 299 301 302 303 306 307 307 306 306 306 305 304 302 301 300 299 297 295 293 289 284 281 277 272 270 264 257 251 245 240 236 231 228 227 226
283 285 287 288 289 289 292 296 296 297 299 300 302 304 305 304 304 304 305 305 304 302 300 299 298 296 293 292 287 281 279 278 275 269 262 255 248 241 236 233 230 228 227 226
282 285 286 287 288 288 294 295 295 296 297 299 301 303 303 304 304 304 304 305 305 303 301 299 297 295 293 291 285 281 280 277 270 266 261 253 245 239 234 233 230 228 226 223
281 283 284 286 287 290 294 295 295 295 296 298 300 300 302 303 303 304 304 304 305 304 303 300 297 294 291 290 285 280 278 277 270 266 258 249 245 240 236 232 229 226 222 218
280 281 283 285 287 290 295 295 295 295 296 298 299 300 301 303 302 303 303 302 303 303 302 300 297 293 289 287 286 282 279 275 270 264 256 246 242 238 235 231 228 225 220 215
279 281 282 285 287 290 294 294 295 295 298 299 299 300 301 301 302 302 302 302 301 302 301 300 295 291 287 286 285 281 279 274 268 260 252 243 238 236 233 231 227 223 218 214
279 280 282 285 286 291 293 293 294 296 297 298 298 299 299 300 300 300 300 301 301 301 300 298 294 289 286 284 282 277 274 271 265 258 250 244 238 233 230 228 225 222 220 217
279 281 282 283 285 288 289 291 293 294 296 296 297 298 298 299 299 298 299 299 299 300 299 297 293 288 284 282 279 275 270 266 262 256 249 243 236 230 228 226 220 218 219 217
279 281 281 282 285 286 288 290 292 294 295 295 296 296 296 297 297 298 298 298 298 298 298 297 294 288 283 279 277 274 269 265 260 251 244 240 233 228 226 225 221 220 218 213
279 281 282 283 285 285 286 289 290 292 293 294 293 293 294 295 296 297 297 297 297 297 297 296 293 288 281 276 273 270 267 263 258 249 241 234 229 226 222 219 217 216 214 211
279 281 281 282 283 283 286 287 289 290 291 291 291 292 294 295 296 296 297 297 297 297 296 294 291 286 280 274 269 267 263 259 253 246 237 232 228 224 222 219 217 215 210 207
Height
5710 5709 5705 5702 5699 5696 5692 5689 5684 5680 5674 5670 5666 5661 5657 5652 5646 5642 5637 5632 5627 5623 5619 5615 5611 5608 5606 5604 5604 5604 5604 5606 5608 5611 5614 5619 5625 5631 5638 5645 5653 5660 5667 5674
5705 5702 5699 5695 5691 5688 5684 5680 5676 5672 5666 5661 5657 5653 5648 5643 5637 5632 5627 5622 5617 5613 5609 5604 5600 5596 5593 5591 5590 5589 5590 5591 5592 5595 5598 5603 5608 5615 5621 5628 5635 5642 5649 5656
5697 5695 5691 5688 5684 5680 5676 5672 5667 5663 5658 5653 5648 5645 5640 5634 5628 5622 5617 5611 5606 5601 5597 5594 5590 5586 5583 5581 5578 5577 5576 5577 5578 5581 5584 5587 5592 5597 5604 5611 5617 5624 5631 5639
5690 5687 5684 5680 5676 5672 5669 5664 5659 5654 5649 5644 5639 5634 5633 5626 5619 5612 5607 5601 5596 5592 5587 5584 5580 5577 5574 5571 5567 5565 5564 5564 5566 5567 5569 5572 5576 5582 5588 5595 5601 5607 5614 5622
5683 5680 5676 5673 5669 5664 5660 5655 5651 5646 5640 5636 5631 5625 5624 5617 5611 5604 5597 5592 5586 5582 5578 5574 5570 5567 5564 5560 5557 5554 5552 5552 5553 5554 5555 5558 5562 5567 5572 5578 5584 5591 5598 5605
5675 5672 5668 5665 5661 5656 5652 5647 5643 5638 5632 5628 5623 5617 5613 5607 5601 5595 5589 5583 5578 5573 5569 5564 5560 5557 5553 5549 5546 5543 5542 5541 5541 5541 5543 5545 5548 5552 5557 5562 5568 5575 5583 5591
5668 5664 5661 5657 5653 5649 5644 5639 5634 5628 5623 5620 5614 5608 5606 5599 5593 5586 5580 5575 5570 5565 5560 5555 5551 5547 5543 5539 5535 5532 5530 5530 5530 5530 5531 5533 5535 5538 5543 5548 5554 5561 5568 5576
5659 5657 5653 5649 5645 5640 5636 5631 5626 5620 5614 5611 5606 5601 5599 5592 5585 5578 5572 5566 5561 5556 5551 5546 5541 5537 5532 5528 5525 5522 5520 5519 5519 5519 5520 5522 5523 5526 5530 5535 5540 5547 5554 5563
5649 5647 5644 5640 5636 5632 5628 5623 5619 5612 5605 5601 5597 5593 5591 5585 5578 5571 5565 5559 5553 5548 5542 5537 5532 5528 5523 5518 5514 5511 5509 5508 5508 5508 5509 5510 5512 5514 5518 5522 5527 5533 5541 5549
5640 5638 5636 5632 5628 5624 5620 5615 5610 5603 5596 5590 5587 5584 5582 5575 5569 5563 5557 5551 5545 5540 5534 5528 5524 5519 5514 5509 5504 5501 5499 5498 5497 5497 5497 5499 5501 5503 5507 5511 5516 5521 5528 5535
5630 5628 5626 5623 5619 5616 5612 5607 5600 5594 5588 5581 5575 5578 5573 5566 5559 5553 5548 5542 5536 5530 5525 5520 5515 5510 5505 5499 5495 5492 5490 5488 5487 5487 5488 5488 5491 5493 5496 5500 5505 5510 5516 5523
5620 5617 5615 5613 5610 5606 5602 5598 5593 5587 5581 5573 5565 5568 5565 5558 5550 5543 5538 5533 5526 5521 5516 5511 5506 5501 5496 5491 5487 5485 5482 5480 5478 5478 5479 5480 5481 5484 5486 5491 5495 5501 5507 5513
5609 5607 5604 5603 5602 5597 5592 5588 5583 5577 5572 5565 5558 5559 5556 5548 5541 5535 5529 5523 5517 5512 5507 5502 5497 5492 5488 5483 5480 5477 5475 5472 5471 5470 5471 5472 5473 5475 5478 5482 5487 5492 5498 5504
5598 5596 5595 5593 5590 5585 5582 5579 5574 5567 5561 5555 5551 5547 5547 5539 5532 5527 5521 5514 5508 5503 5498 5493 5489 5484 5480 5476 5472 5470 5467 5465 5464 5464 5464 5464 5465 5467 5470 5474 5479 5484 5490 5496
5586 5585 5584 5582 5579 5575 5572 5569 5564 5558 5552 5546 5542 5537 5534 5529 5523 5517 5511 5506 5500 5495 5490 5485 5481 5476 5472 5469 5465 5462 5460 5459 5458 5457 5457 5458 5459 5461 5464 5467 5472 5477 5484 5490
5575 5573 5572 5571 5569 5564 5561 5560 5555 5549 5543 5536 5531 5528 5525 5519 5513 5508 5502 5497 5492 5487 5482 5478 5473 5469 5465 5462 5459 5456 5454 5453 5452 5452 5451 5452 5454 5456 5459 5462 5467 5472 5479 5485
5564 5561 5558 5557 5556 5552 5551 5551 5546 5540 5535 5528 5521 5519 5515 5509 5504 5498 5493 5488 5483 5478 5474 5470 5466 5461 5458 5455 5452 5450 5449 5448 5447 5446 5446 5447 5449 5452 5455 5458 5464 5469 5475 5480
5553 5550 5545 5544 5543 5539 5544 5539 5534 5529 5524 5519 5513 5509 5504 5499 5494 5490 5484 5479 5474 5470 5466 5461 5457 5454 5450 5447 5445 5444 5442 5441 5440 5440 5440 5442 5444 5447 5450 5454 5459 5465 5470 5476
5542 5538 5534 5531 5527 5526 5531 5527 5522 5515 5513 5510 5503 5499 5494 5489 5484 5482 5476 5470 5466 5461 5457 5453 5449 5446 5443 5441 5438 5437 5436 5434 5434 5434 5434 5436 5438 5441 5445 5449 5455 5460 5465 5471
5530 5526 5524 5519 5515 5514 5520 5515 5509 5503 5501 5500 5493 5488 5484 5479 5475 5474 5468 5463 5458 5453 5449 5445 5441 5438 5436 5434 5432 5430 5429 5428 5428 5428 5428 5430 5433 5436 5440 5444 5449 5454 5460 5466
5517 5514 5512 5508 5503 5503 5506 5501 5496 5493 5491 5487 5482 5478 5474 5469 5466 5462 5458 5454 5449 5445 5441 5437 5433 5430 5428 5426 5424 5423 5422 5422 5422 5422 5423 5425 5427 5431 5435 5439 5444 5449 5455 5461
5504 5502 5501 5497 5493 5496 5493 5489 5486 5482 5479 5475 5471 5467 5464 5460 5456 5452 5448 5444 5440 5436 5432 5428 5425 5422 5420 5419 5417 5416 5416 5416 5416 5416 5417 5419 5422 5425 5430 5434 5439 5444 5450 5457
5492 5492 5489 5487 5487 5484 5481 5477 5474 5471 5468 5464 5460 5457 5454 5450 5447 5443 5439 5435 5431 5427 5424 5420 5416 5414 5412 5411 5410 5409 5409 5409 5410 5411 5412 5414 5416 5420 5425 5429 5434 5440 5446 5452
5481 5479 5476 5475 5476 5473 5469 5466 5463 5460 5456 5453 5450 5447 5444 5440 5437 5433 5430 5426 5422 5418 5415 5411 5408 5406 5405 5403 5402 5402 5402 5403 5403 5405 5406 5409 5412 5416 5420 5424 5430 5435 5442 5448
5469 5466 5464 5462 5463 5460 5459 5455 5452 5449 5445 5443 5440 5437 5433 5430 5427 5423 5420 5417 5413 5409 5406 5403 5400 5398 5397 5396 5395 5395 5396 5396 5398 5399 5401 5404 5407 5411 5415 5420 5425 5430 5437 5443
5459 5455 5452 5451 5451 5447 5447 5444 5441 5438 5435 5433 5430 5427 5424 5420 5417 5414 5411 5407 5404 5401 5398 5395 5392 5390 5389 5388 5388 5388 5389 5390 5391 5393 5396 5399 5402 5406 5410 5415 5420 5425 5432 5439